This is the latest recevied weather packets stored in our database for station/object JA6CFI-13. If no packets are shown the sender has not sent any weather packets the latest 10 day(s).
| Time | Temp. | Humidity | Pressure | Rain* | Wind** | Luminosity | Snow |
|---|---|---|---|---|---|---|---|
| 1777885401 | 17.22° C | 67% | 1014.7 hPa | 0 mm | - | - | - |
| 1777884620 | 17.22° C | 66% | 1014.5 hPa | 0 mm | - | - | - |
| 1777883842 | 17.78° C | 65% | 1014.5 hPa | 0 mm | - | - | - |
| 1777883061 | 17.78° C | 64% | 1014.5 hPa | 0 mm | - | - | - |
| 1777882280 | 18.33° C | 60% | 1014.7 hPa | 0 mm | - | - | - |
| 1777881500 | 18.33° C | 61% | 1014.5 hPa | 0 mm | - | - | - |
| 1777880720 | 18.89° C | 60% | 1014.5 hPa | 0 mm | - | - | - |
| 1777880523 | 18.33° C | 60% | 1014.4 hPa | 0 mm | - | - | - |
| 1777879941 | 18.89° C | 61% | 1014.3 hPa | 0 mm | - | - | - |
| 1777879161 | 18.33° C | 62% | 1014.6 hPa | 0 mm | - | - | - |
| 1777878723 | 18.89° C | 61% | 1014.5 hPa | 0 mm | - | - | - |
| 1777878380 | 18.89° C | 62% | 1014.3 hPa | 0 mm | - | - | - |
| 1777877602 | 19.44° C | 58% | 1014.2 hPa | 0 mm | - | - | - |
| 1777876821 | 19.44° C | 59% | 1014 hPa | 0 mm | - | - | - |
| 1777876041 | 19.44° C | 58% | 1014.3 hPa | 0 mm | - | - | - |
| 1777875260 | 18.89° C | 55% | 1014.1 hPa | 0 mm | - | - | - |
| 1777875123 | 19.44° C | 55% | 1014.1 hPa | 0 mm | - | - | - |
| 1777874482 | 18.89° C | 51% | 1014.3 hPa | 0 mm | - | - | - |
| 1777873700 | 19.44° C | 49% | 1013.9 hPa | 0 mm | - | - | - |
| 1777873324 | 20° C | 51% | 1014 hPa | 0 mm | - | - | - |
| 1777872921 | 20° C | 51% | 1013.5 hPa | 0 mm | - | - | - |
| 1777872141 | 20° C | 48% | 1013.5 hPa | 0 mm | - | - | - |
| 1777871361 | 20° C | 49% | 1013.7 hPa | 0 mm | - | - | - |
| 1777870581 | 20° C | 49% | 1013.4 hPa | 0 mm | - | - | - |
| 1777869801 | 20° C | 48% | 1013.4 hPa | 0 mm | - | - | - |
* Rain latest hour (hover to see other rain measurements)
** Current wind speed in m/s (hover to see current wind gust speed)